| time (UTC) | temp F | wind direction | speed MPH | gust MPH | rain 1hr in | rain 24hr in | rain mn in | humidity % | barometer mb |
| 20260503013010 | 41 | 0 | 0.0 | 1.0 | 0.00 | 0.00 | 0.00 | 82 | 1018.2 |
| 20260503012009 | 41 | 0 | 0.0 | 0.0 | 0.00 | 0.00 | 0.00 | 81 | 1017.9 |
| 20260503011009 | 42 | 0 | 0.0 | 0.0 | 0.00 | 0.00 | 0.00 | 82 | 1018.0 |
| 20260503010015 | 42 | 0 | 0.0 | 0.0 | 0.00 | 0.00 | 0.00 | 81 | 1018.0 |
| 20260503005008 | 42 | 0 | 0.0 | 0.0 | 0.00 | 0.00 | 0.00 | 80 | 1018.0 |
| 20260503003010 | 43 | 0 | 0.0 | 1.0 | 0.00 | 0.00 | 0.00 | 79 | 1018.0 |
| 20260503002008 | 43 | 0 | 0.0 | 1.0 | 0.00 | 0.00 | 0.00 | 78 | 1018.1 |
| 20260503001008 | 44 | 0 | 0.0 | 1.0 | 0.00 | 0.00 | 0.00 | 78 | 1018.2 |
| 20260502235009 | 43 | 45 | 0.0 | 0.0 | 0.00 | 0.00 | 0.00 | 78 | 1018.4 |
| 20260502234009 | 44 | 45 | 0.0 | 0.0 | 0.00 | 0.00 | 0.00 | 79 | 1018.3 |
| 20260502233010 | 44 | 45 | 0.0 | 0.0 | 0.00 | 0.00 | 0.00 | 78 | 1018.5 |
| 20260502232009 | 44 | 45 | 0.0 | 0.0 | 0.00 | 0.00 | 0.00 | 78 | 1018.5 |
| 20260502231008 | 45 | 45 | 0.0 | 0.0 | 0.00 | 0.00 | 0.00 | 77 | 1018.4 |
| 20260502230014 | 46 | 0 | 0.0 | 1.0 | 0.00 | 0.00 | 0.00 | 74 | 1018.5 |
| 20260502225008 | 46 | 0 | 0.0 | 1.0 | 0.00 | 0.00 | 0.00 | 75 | 1018.6 |
| 20260502223010 | 47 | 0 | 0.0 | 2.0 | 0.00 | 0.00 | 0.00 | 73 | 1018.4 |
| 20260502222006 | 47 | 0 | 1.0 | 2.0 | 0.00 | 0.00 | 0.00 | 73 | 1018.5 |
| 20260502220010 | 47 | 45 | 0.0 | 1.0 | 0.00 | 0.00 | 0.00 | 72 | 1018.5 |
| 20260502215007 | 47 | 45 | 0.0 | 1.0 | 0.00 | 0.00 | 0.00 | 74 | 1018.4 |
| 20260502214008 | 47 | 0 | 0.0 | 1.0 | 0.00 | 0.00 | 0.00 | 73 | 1018.4 |
| 20260502213006 | 47 | 0 | 0.0 | 0.0 | 0.00 | 0.00 | 0.00 | 74 | 1018.5 |
| 20260502212008 | 47 | 0 | 0.0 | 1.0 | 0.00 | 0.00 | 0.00 | 74 | 1018.4 |
| 20260502211009 | 47 | 0 | 1.0 | 3.0 | 0.00 | 0.00 | 0.00 | 73 | 1018.5 |
| 20260502210011 | 48 | 0 | 0.0 | 2.0 | 0.00 | 0.00 | 0.00 | 75 | 1018.5 |
| 20260502205008 | 48 | 270 | 0.0 | 2.0 | 0.00 | 0.00 | 0.00 | 75 | 1018.7 |
| 20260502204006 | 48 | 0 | 0.0 | 0.0 | 0.00 | 0.00 | 0.00 | 76 | 1018.7 |
| 20260502203011 | 48 | 0 | 0.0 | 0.0 | 0.00 | 0.00 | 0.00 | 75 | 1018.6 |
| 20260502202008 | 49 | 0 | 0.0 | 0.0 | 0.00 | 0.00 | 0.00 | 74 | 1018.4 |
| 20260502201009 | 49 | 0 | 0.0 | 1.0 | 0.00 | 0.00 | 0.00 | 74 | 1018.4 |
| 20260502200013 | 50 | 0 | 0.0 | 0.0 | 0.00 | 0.00 | 0.00 | 73 | 1018.4 |
| 20260502195011 | 51 | 0 | 0.0 | 0.0 | 0.00 | 0.00 | 0.00 | 71 | 1018.4 |
| 20260502194006 | 51 | 0 | 0.0 | 0.0 | 0.00 | 0.00 | 0.00 | 70 | 1018.4 |
| 20260502193011 | 52 | 0 | 0.0 | 0.0 | 0.00 | 0.00 | 0.00 | 70 | 1018.3 |
| 20260502192012 | 53 | 0 | 0.0 | 0.0 | 0.00 | 0.00 | 0.00 | 68 | 1018.2 |
| 20260502191006 | 54 | 0 | 0.0 | 1.0 | 0.00 | 0.00 | 0.00 | 67 | 1018.2 |
| 20260502185008 | 55 | 90 | 0.0 | 0.0 | 0.00 | 0.00 | 0.00 | 65 | 1018.1 |
| 20260502184006 | 56 | 90 | 0.0 | 1.0 | 0.00 | 0.00 | 0.00 | 63 | 1018.0 |
| 20260502181010 | 63 | 0 | 1.0 | 2.0 | 0.00 | 0.00 | 0.00 | 50 | 1017.5 |
| 20260502164009 | 75 | 180 | 1.0 | 4.0 | 0.00 | 0.00 | 0.00 | 29 | 1017.1 |
| 20260502163010 | 75 | 180 | 1.0 | 3.0 | 0.00 | 0.00 | 0.00 | 28 | 1017.2 |
| 20260502162008 | 75 | 135 | 2.0 | 5.0 | 0.00 | 0.00 | 0.00 | 29 | 1017.5 |
| 20260502161007 | 76 | 135 | 3.0 | 4.0 | 0.00 | 0.00 | 0.00 | 29 | 1017.5 |
| 20260502152009 | 77 | 180 | 1.0 | 3.0 | 0.00 | 0.00 | 0.00 | 24 | 1018.1 |
| 20260502151009 | 76 | 180 | 4.0 | 6.0 | 0.00 | 0.00 | 0.00 | 26 | 1018.3 |
| 20260502123009 | 75 | 225 | 3.0 | 5.0 | 0.00 | 0.00 | 0.00 | 29 | 1020.4 |
| 20260502122014 | 76 | 135 | 3.0 | 7.0 | 0.00 | 0.00 | 0.00 | 27 | 1020.4 |
| 20260502121008 | 75 | 180 | 4.0 | 8.0 | 0.00 | 0.00 | 0.00 | 24 | 1020.6 |
| 20260502115008 | 74 | 180 | 2.0 | 6.0 | 0.00 | 0.00 | 0.00 | 25 | 1021.0 |
| 20260502114009 | 75 | 180 | 3.0 | 5.0 | 0.00 | 0.00 | 0.00 | 27 | 1021.1 |
| 20260502110012 | 73 | 180 | 3.0 | 6.0 | 0.00 | 0.00 | 0.00 | 33 | 1021.4 |
| 20260502104009 | 73 | 270 | 4.0 | 7.0 | 0.00 | 0.00 | 0.00 | 34 | 1021.7 |
| 20260502103010 | 72 | 270 | 2.0 | 4.0 | 0.00 | 0.00 | 0.00 | 30 | 1022.0 |
| 20260502101009 | 73 | 90 | 2.0 | 5.0 | 0.00 | 0.00 | 0.00 | 33 | 1022.1 |
| 20260502091006 | 69 | 270 | 3.0 | 4.0 | 0.00 | 0.00 | 0.00 | 42 | 1023.0 |
| 20260502071006 | 59 | 135 | 1.0 | 2.0 | 0.00 | 0.00 | 0.00 | 56 | 1024.4 |
| 20260502070012 | 58 | 45 | 1.0 | 3.0 | 0.00 | 0.00 | 0.00 | 60 | 1024.5 |
| 20260502065008 | 56 | 45 | 1.0 | 4.0 | 0.00 | 0.00 | 0.00 | 61 | 1024.6 |
| 20260502064009 | 54 | 225 | 1.0 | 3.0 | 0.00 | 0.00 | 0.00 | 62 | 1024.9 |
| 20260502063010 | 54 | 270 | 0.0 | 2.0 | 0.00 | 0.00 | 0.00 | 64 | 1024.9 |
| 20260502061008 | 51 | 135 | 0.0 | 2.0 | 0.00 | 0.00 | 0.00 | 69 | 1025.0 |
| 20260502060014 | 49 | 270 | 1.0 | 3.0 | 0.00 | 0.00 | 0.00 | 73 | 1025.1 |
| 20260502055008 | 48 | 0 | 0.0 | 1.0 | 0.00 | 0.00 | 0.00 | 73 | 1025.2 |
| 20260502054009 | 46 | 45 | 0.0 | 1.0 | 0.00 | 0.00 | 0.00 | 78 | 1025.4 |
| 20260502053010 | 45 | 135 | 0.0 | 1.0 | 0.00 | 0.00 | 0.00 | 80 | 1025.4 |
| 20260502052008 | 43 | 225 | 0.0 | 0.0 | 0.00 | 0.00 | 0.00 | 83 | 1025.6 |
| 20260502051008 | 41 | 180 | 0.0 | 1.0 | 0.00 | 0.00 | 0.00 | 86 | 1025.7 |
| 20260502050011 | 41 | 180 | 0.0 | 2.0 | 0.00 | 0.00 | 0.00 | 88 | 1025.6 |
| 20260502045009 | 40 | 225 | 0.0 | 1.0 | 0.00 | 0.00 | 0.00 | 90 | 1025.6 |
| 20260502044009 | 38 | 225 | 0.0 | 0.0 | 0.00 | 0.00 | 0.00 | 90 | 1025.5 |
| 20260502043010 | 37 | 225 | 0.0 | 1.0 | 0.00 | 0.00 | 0.00 | 91 | 1025.7 |
| 20260502041009 | 36 | 225 | 0.0 | 1.0 | 0.00 | 0.00 | 0.00 | 92 | 1025.7 |
| 20260502040015 | 36 | 225 | 0.0 | 1.0 | 0.00 | 0.00 | 0.00 | 91 | 1025.7 |
| 20260502035007 | 35 | 225 | 0.0 | 1.0 | 0.00 | 0.00 | 0.00 | 91 | 1025.9 |
| 20260502034009 | 35 | 225 | 0.0 | 2.0 | 0.00 | 0.00 | 0.00 | 91 | 1025.8 |
| 20260502033010 | 35 | 90 | 0.0 | 0.0 | 0.00 | 0.00 | 0.00 | 90 | 1025.8 |
| 20260502032008 | 35 | 90 | 0.0 | 0.0 | 0.00 | 0.00 | 0.00 | 89 | 1025.6 |
| 20260502031008 | 36 | 90 | 0.0 | 0.0 | 0.00 | 0.00 | 0.00 | 88 | 1025.6 |
| 20260502023010 | 37 | 0 | 0.0 | 2.0 | 0.00 | 0.00 | 0.00 | 89 | 1025.7 |
| 20260502022008 | 37 | 45 | 0.0 | 2.0 | 0.00 | 0.00 | 0.00 | 88 | 1025.7 |
| 20260502021009 | 38 | 45 | 0.0 | 1.0 | 0.00 | 0.00 | 0.00 | 88 | 1025.6 |
| 20260502020016 | 38 | 45 | 0.0 | 1.0 | 0.00 | 0.00 | 0.00 | 87 | 1025.7 |
| 20260502014011 | 40 | 0 | 0.0 | 2.0 | 0.00 | 0.00 | 0.00 | 84 | 1025.8 |